owner,sensor,date,latitude,longitude,air_temperature,qcFlag 
DISL,ioos:station:DISL:DISL:1,2019-05-01T00:40:00Z,30.2513,-88.0778,23.53,11111222 
DISL,ioos:station:DISL:DISL:1,2019-05-01T01:40:00Z,30.2513,-88.0778,23.19,11111222 
DISL,ioos:station:DISL:DISL:1,2019-05-01T02:40:00Z,30.2513,-88.0778,22.89,11111222 
DISL,ioos:station:DISL:DISL:1,2019-05-01T03:40:00Z,30.2513,-88.0778,22.9,11111222 
DISL,ioos:station:DISL:DISL:1,2019-05-01T04:40:00Z,30.2513,-88.0778,22.69,11111222 
DISL,ioos:station:DISL:DISL:1,2019-05-01T06:10:00Z,30.2513,-88.0778,22.72,11111222 
DISL,ioos:station:DISL:DISL:1,2019-05-01T06:40:00Z,30.2513,-88.0778,22.66,11111222 
DISL,ioos:station:DISL:DISL:1,2019-05-01T07:40:00Z,30.2513,-88.0778,22.59,11111222 
DISL,ioos:station:DISL:DISL:1,2019-05-01T08:40:00Z,30.2513,-88.0778,22.59,11111222 
DISL,ioos:station:DISL:DISL:1,2019-05-01T09:40:00Z,30.2513,-88.0778,22.66,11111222 
DISL,ioos:station:DISL:DISL:1,2019-05-01T10:40:00Z,30.2513,-88.0778,22.76,11111222 
DISL,ioos:station:DISL:DISL:1,2019-05-01T11:40:00Z,30.2513,-88.0778,23.31,11111222 
DISL,ioos:station:DISL:DISL:1,2019-05-01T12:40:00Z,30.2513,-88.0778,23.81,11111222 
DISL,ioos:station:DISL:DISL:1,2019-05-01T13:40:00Z,30.2513,-88.0778,23.7,11111222 
DISL,ioos:station:DISL:DISL:1,2019-05-01T14:40:00Z,30.2513,-88.0778,24.29,11111222 
DISL,ioos:station:DISL:DISL:1,2019-05-01T15:40:00Z,30.2513,-88.0778,24.35,11111222 
DISL,ioos:station:DISL:DISL:1,2019-05-01T16:40:00Z,30.2513,-88.0778,24.38,11111222 
DISL,ioos:station:DISL:DISL:1,2019-05-01T17:40:00Z,30.2513,-88.0778,24.63,11111222 
DISL,ioos:station:DISL:DISL:1,2019-05-01T18:40:00Z,30.2513,-88.0778,24.61,11111222 
DISL,ioos:station:DISL:DISL:1,2019-05-01T19:40:00Z,30.2513,-88.0778,24.71,11111222 
DISL,ioos:station:DISL:DISL:1,2019-05-01T20:40:00Z,30.2513,-88.0778,25.12,11111222 
DISL,ioos:station:DISL:DISL:1,2019-05-01T21:40:00Z,30.2513,-88.0778,24.99,11111222 
DISL,ioos:station:DISL:DISL:1,2019-05-01T22:40:00Z,30.2513,-88.0778,24.58,11111222 
DISL,ioos:station:DISL:DISL:1,2019-05-01T23:40:00Z,30.2513,-88.0778,24.43,11111222 
DISL,ioos:station:DISL:DISL:1,2019-05-02T00:40:00Z,30.2513,-88.0778,23.9,11111222 
DISL,ioos:station:DISL:DISL:1,2019-05-02T01:40:00Z,30.2513,-88.0778,23.57,11111222 
DISL,ioos:station:DISL:DISL:1,2019-05-02T02:40:00Z,30.2513,-88.0778,23.61,11111222 
DISL,ioos:station:DISL:DISL:1,2019-05-02T03:40:00Z,30.2513,-88.0778,23.41,11111222 
DISL,ioos:station:DISL:DISL:1,2019-05-02T05:10:00Z,30.2513,-88.0778,23.24,11111222 
DISL,ioos:station:DISL:DISL:1,2019-05-02T05:40:00Z,30.2513,-88.0778,23.31,11111222 
DISL,ioos:station:DISL:DISL:1,2019-05-02T06:40:00Z,30.2513,-88.0778,23.24,11111222 
DISL,ioos:station:DISL:DISL:1,2019-05-02T07:40:00Z,30.2513,-88.0778,23.21,11111222 
DISL,ioos:station:DISL:DISL:1,2019-05-02T08:40:00Z,30.2513,-88.0778,22.86,11111222 
DISL,ioos:station:DISL:DISL:1,2019-05-02T10:10:00Z,30.2513,-88.0778,22.56,11111222 
DISL,ioos:station:DISL:DISL:1,2019-05-02T11:10:00Z,30.2513,-88.0778,22.52,11111222 
DISL,ioos:station:DISL:DISL:1,2019-05-02T12:10:00Z,30.2513,-88.0778,23.1,11111222 
DISL,ioos:station:DISL:DISL:1,2019-05-02T13:10:00Z,30.2513,-88.0778,23.7,11111222 
DISL,ioos:station:DISL:DISL:1,2019-05-02T14:10:00Z,30.2513,-88.0778,23.75,11111222 
DISL,ioos:station:DISL:DISL:1,2019-05-02T15:10:00Z,30.2513,-88.0778,24.39,11111222 
DISL,ioos:station:DISL:DISL:1,2019-05-02T16:10:00Z,30.2513,-88.0778,24.6,11111222 
DISL,ioos:station:DISL:DISL:1,2019-05-02T17:10:00Z,30.2513,-88.0778,24.89,11111222 
DISL,ioos:station:DISL:DISL:1,2019-05-02T18:10:00Z,30.2513,-88.0778,24.48,11111222 
DISL,ioos:station:DISL:DISL:1,2019-05-02T19:10:00Z,30.2513,-88.0778,24.54,11111222 
DISL,ioos:station:DISL:DISL:1,2019-05-02T20:10:00Z,30.2513,-88.0778,24.7,11111222 
DISL,ioos:station:DISL:DISL:1,2019-05-02T21:10:00Z,30.2513,-88.0778,24.87,11111222 
DISL,ioos:station:DISL:DISL:1,2019-05-02T22:10:00Z,30.2513,-88.0778,24.44,11111222 
DISL,ioos:station:DISL:DISL:1,2019-05-02T23:10:00Z,30.2513,-88.0778,24.17,11111222 
DISL,ioos:station:DISL:DISL:1,2019-05-02T23:40:00Z,30.2513,-88.0778,24.77,11111222 
DISL,ioos:station:DISL:DISL:1,2019-05-03T01:10:00Z,30.2513,-88.0778,23.59,11111222 
DISL,ioos:station:DISL:DISL:1,2019-05-03T02:10:00Z,30.2513,-88.0778,23.72,11111222 
DISL,ioos:station:DISL:DISL:1,2019-05-03T02:40:00Z,30.2513,-88.0778,23.68,11111222 
DISL,ioos:station:DISL:DISL:1,2019-05-03T03:40:00Z,30.2513,-88.0778,23.27,11111222 
DISL,ioos:station:DISL:DISL:1,2019-05-03T05:10:00Z,30.2513,-88.0778,22.9,11111222 
DISL,ioos:station:DISL:DISL:1,2019-05-03T05:40:00Z,30.2513,-88.0778,23.14,11111222 
DISL,ioos:station:DISL:DISL:1,2019-05-03T07:10:00Z,30.2513,-88.0778,22.53,11111222 
DISL,ioos:station:DISL:DISL:1,2019-05-03T08:10:00Z,30.2513,-88.0778,23.01,11111222 
DISL,ioos:station:DISL:DISL:1,2019-05-03T09:10:00Z,30.2513,-88.0778,22.84,11111222 
DISL,ioos:station:DISL:DISL:1,2019-05-03T10:10:00Z,30.2513,-88.0778,22.68,11111222 
DISL,ioos:station:DISL:DISL:1,2019-05-03T11:10:00Z,30.2513,-88.0778,22.61,11111222 
DISL,ioos:station:DISL:DISL:1,2019-05-03T12:10:00Z,30.2513,-88.0778,23.14,11111222 
DISL,ioos:station:DISL:DISL:1,2019-05-03T13:10:00Z,30.2513,-88.0778,22.82,11111222 
DISL,ioos:station:DISL:DISL:1,2019-05-03T14:10:00Z,30.2513,-88.0778,22.43,11111222 
DISL,ioos:station:DISL:DISL:1,2019-05-03T15:10:00Z,30.2513,-88.0778,22.75,11111222 
DISL,ioos:station:DISL:DISL:1,2019-05-03T16:10:00Z,30.2513,-88.0778,23.41,11111222 
DISL,ioos:station:DISL:DISL:1,2019-05-03T17:10:00Z,30.2513,-88.0778,24.1,11111222 
DISL,ioos:station:DISL:DISL:1,2019-05-03T18:10:00Z,30.2513,-88.0778,25.19,11111222 
DISL,ioos:station:DISL:DISL:1,2019-05-03T19:10:00Z,30.2513,-88.0778,25.04,11111222 
DISL,ioos:station:DISL:DISL:1,2019-05-03T20:10:00Z,30.2513,-88.0778,25.07,11111222 
DISL,ioos:station:DISL:DISL:1,2019-05-03T21:10:00Z,30.2513,-88.0778,25.17,11111222 
DISL,ioos:station:DISL:DISL:1,2019-05-03T22:10:00Z,30.2513,-88.0778,25.62,11111222 
DISL,ioos:station:DISL:DISL:1,2019-05-03T23:10:00Z,30.2513,-88.0778,25.39,11111222 
DISL,ioos:station:DISL:DISL:1,2019-05-03T23:40:00Z,30.2513,-88.0778,24.92,11111222 
DISL,ioos:station:DISL:DISL:1,2019-05-04T00:40:00Z,30.2513,-88.0778,24.12,11111222 
DISL,ioos:station:DISL:DISL:1,2019-05-04T01:40:00Z,30.2513,-88.0778,23.9,11111222 
DISL,ioos:station:DISL:DISL:1,2019-05-04T02:40:00Z,30.2513,-88.0778,23.88,11111222 
DISL,ioos:station:DISL:DISL:1,2019-05-04T04:10:00Z,30.2513,-88.0778,23.95,11111222 
DISL,ioos:station:DISL:DISL:1,2019-05-04T04:40:00Z,30.2513,-88.0778,23.88,11111222 
DISL,ioos:station:DISL:DISL:1,2019-05-04T05:40:00Z,30.2513,-88.0778,23.91,11111222 
DISL,ioos:station:DISL:DISL:1,2019-05-04T06:40:00Z,30.2513,-88.0778,23.88,11111222 
DISL,ioos:station:DISL:DISL:1,2019-05-04T08:10:00Z,30.2513,-88.0778,23.88,11111222 
DISL,ioos:station:DISL:DISL:1,2019-05-04T09:10:00Z,30.2513,-88.0778,24.05,11111222 
DISL,ioos:station:DISL:DISL:1,2019-05-04T09:40:00Z,30.2513,-88.0778,24.18,11111222 
DISL,ioos:station:DISL:DISL:1,2019-05-04T11:10:00Z,30.2513,-88.0778,24.39,11111222 
DISL,ioos:station:DISL:DISL:1,2019-05-04T12:10:00Z,30.2513,-88.0778,24.86,11111222 
DISL,ioos:station:DISL:DISL:1,2019-05-04T13:10:00Z,30.2513,-88.0778,25.18,11111222 
DISL,ioos:station:DISL:DISL:1,2019-05-04T14:10:00Z,30.2513,-88.0778,25.32,11111222 
DISL,ioos:station:DISL:DISL:1,2019-05-04T15:10:00Z,30.2513,-88.0778,25.56,11111222 
DISL,ioos:station:DISL:DISL:1,2019-05-04T16:10:00Z,30.2513,-88.0778,25.76,11111222 
DISL,ioos:station:DISL:DISL:1,2019-05-04T17:10:00Z,30.2513,-88.0778,25.78,11111222 
DISL,ioos:station:DISL:DISL:1,2019-05-04T18:10:00Z,30.2513,-88.0778,25.61,11111222 
DISL,ioos:station:DISL:DISL:1,2019-05-04T19:10:00Z,30.2513,-88.0778,21.74,11111222 
DISL,ioos:station:DISL:DISL:1,2019-05-04T20:10:00Z,30.2513,-88.0778,21.94,11111222 
DISL,ioos:station:DISL:DISL:1,2019-05-04T21:10:00Z,30.2513,-88.0778,23.2,11111222 
DISL,ioos:station:DISL:DISL:1,2019-05-04T22:10:00Z,30.2513,-88.0778,23.25,11111222 
DISL,ioos:station:DISL:DISL:1,2019-05-04T23:10:00Z,30.2513,-88.0778,23.25,11111222 
DISL,ioos:station:DISL:DISL:1,2019-05-04T23:40:00Z,30.2513,-88.0778,23.25,11111222 
DISL,ioos:station:DISL:DISL:1,2019-05-05T00:40:00Z,30.2513,-88.0778,22.96,11111222 
DISL,ioos:station:DISL:DISL:1,2019-05-05T01:40:00Z,30.2513,-88.0778,23.07,11111222 
DISL,ioos:station:DISL:DISL:1,2019-05-05T02:40:00Z,30.2513,-88.0778,23.34,11111222 
DISL,ioos:station:DISL:DISL:1,2019-05-05T03:40:00Z,30.2513,-88.0778,23.58,11111222 
DISL,ioos:station:DISL:DISL:1,2019-05-05T05:10:00Z,30.2513,-88.0778,23.92,11111222 
DISL,ioos:station:DISL:DISL:1,2019-05-05T05:40:00Z,30.2513,-88.0778,23.95,11111222 
DISL,ioos:station:DISL:DISL:1,2019-05-05T06:40:00Z,30.2513,-88.0778,23.74,11111222 
DISL,ioos:station:DISL:DISL:1,2019-05-05T08:10:00Z,30.2513,-88.0778,21.77,11111222 
DISL,ioos:station:DISL:DISL:1,2019-05-05T08:40:00Z,30.2513,-88.0778,21.63,11111222 
DISL,ioos:station:DISL:DISL:1,2019-05-05T10:10:00Z,30.2513,-88.0778,20.65,11111222 
DISL,ioos:station:DISL:DISL:1,2019-05-05T11:10:00Z,30.2513,-88.0778,20.17,11111222 
DISL,ioos:station:DISL:DISL:1,2019-05-05T12:10:00Z,30.2513,-88.0778,20.62,11111222 
DISL,ioos:station:DISL:DISL:1,2019-05-05T13:10:00Z,30.2513,-88.0778,20.19,11111222 
DISL,ioos:station:DISL:DISL:1,2019-05-05T14:10:00Z,30.2513,-88.0778,20.7,11111222 
DISL,ioos:station:DISL:DISL:1,2019-05-05T15:10:00Z,30.2513,-88.0778,21.42,11111222 
DISL,ioos:station:DISL:DISL:1,2019-05-05T16:10:00Z,30.2513,-88.0778,22.25,11111222 
DISL,ioos:station:DISL:DISL:1,2019-05-05T17:10:00Z,30.2513,-88.0778,22.28,11111222 
DISL,ioos:station:DISL:DISL:1,2019-05-05T18:10:00Z,30.2513,-88.0778,22.66,11111222 
DISL,ioos:station:DISL:DISL:1,2019-05-05T19:10:00Z,30.2513,-88.0778,23.16,11111222 
DISL,ioos:station:DISL:DISL:1,2019-05-05T20:10:00Z,30.2513,-88.0778,23.43,11111222 
DISL,ioos:station:DISL:DISL:1,2019-05-05T21:10:00Z,30.2513,-88.0778,24.02,11111222 
DISL,ioos:station:DISL:DISL:1,2019-05-05T22:10:00Z,30.2513,-88.0778,24.79,11111222 
DISL,ioos:station:DISL:DISL:1,2019-05-05T23:10:00Z,30.2513,-88.0778,24.85,11111222 
DISL,ioos:station:DISL:DISL:1,2019-05-05T23:40:00Z,30.2513,-88.0778,25.13,11111222 
DISL,ioos:station:DISL:DISL:1,2019-05-06T00:40:00Z,30.2513,-88.0778,24.77,11111222 
DISL,ioos:station:DISL:DISL:1,2019-05-06T01:40:00Z,30.2513,-88.0778,24.62,11111222 
DISL,ioos:station:DISL:DISL:1,2019-05-06T02:40:00Z,30.2513,-88.0778,23.97,11111222 
DISL,ioos:station:DISL:DISL:1,2019-05-06T03:40:00Z,30.2513,-88.0778,23.51,11111222 
DISL,ioos:station:DISL:DISL:1,2019-05-06T04:40:00Z,30.2513,-88.0778,22.76,11111222 
DISL,ioos:station:DISL:DISL:1,2019-05-06T05:40:00Z,30.2513,-88.0778,23.07,11111222 
DISL,ioos:station:DISL:DISL:1,2019-05-06T06:40:00Z,30.2513,-88.0778,22.69,11111222 
DISL,ioos:station:DISL:DISL:1,2019-05-06T07:40:00Z,30.2513,-88.0778,22.83,11111222 
DISL,ioos:station:DISL:DISL:1,2019-05-06T08:40:00Z,30.2513,-88.0778,21.95,11111222 
DISL,ioos:station:DISL:DISL:1,2019-05-06T09:40:00Z,30.2513,-88.0778,20.96,11111222 
DISL,ioos:station:DISL:DISL:1,2019-05-06T10:40:00Z,30.2513,-88.0778,20.21,11111222 
DISL,ioos:station:DISL:DISL:1,2019-05-06T11:40:00Z,30.2513,-88.0778,20.04,11111222 
DISL,ioos:station:DISL:DISL:1,2019-05-06T12:40:00Z,30.2513,-88.0778,20.65,11111222 
DISL,ioos:station:DISL:DISL:1,2019-05-06T13:40:00Z,30.2513,-88.0778,20.91,11111222 
DISL,ioos:station:DISL:DISL:1,2019-05-06T15:10:00Z,30.2513,-88.0778,21.3,11111222 
DISL,ioos:station:DISL:DISL:1,2019-05-06T16:10:00Z,30.2513,-88.0778,21.62,11111222 
DISL,ioos:station:DISL:DISL:1,2019-05-06T17:10:00Z,30.2513,-88.0778,22.26,11111222 
DISL,ioos:station:DISL:DISL:1,2019-05-06T18:10:00Z,30.2513,-88.0778,23.64,11111222 
DISL,ioos:station:DISL:DISL:1,2019-05-06T19:10:00Z,30.2513,-88.0778,24.51,11111222 
DISL,ioos:station:DISL:DISL:1,2019-05-06T20:10:00Z,30.2513,-88.0778,24.49,11111222 
DISL,ioos:station:DISL:DISL:1,2019-05-06T21:10:00Z,30.2513,-88.0778,24.93,11111222 
DISL,ioos:station:DISL:DISL:1,2019-05-06T22:10:00Z,30.2513,-88.0778,25.04,11111222 
DISL,ioos:station:DISL:DISL:1,2019-05-06T23:10:00Z,30.2513,-88.0778,25.22,11111222 
DISL,ioos:station:DISL:DISL:1,2019-05-06T23:40:00Z,30.2513,-88.0778,24.92,11111222 
DISL,ioos:station:DISL:DISL:1,2019-05-07T00:40:00Z,30.2513,-88.0778,23.57,11111222 
DISL,ioos:station:DISL:DISL:1,2019-05-07T01:40:00Z,30.2513,-88.0778,23.47,11111222 
DISL,ioos:station:DISL:DISL:1,2019-05-07T02:40:00Z,30.2513,-88.0778,22.86,11111222 
DISL,ioos:station:DISL:DISL:1,2019-05-07T03:40:00Z,30.2513,-88.0778,22.3,11111222 
DISL,ioos:station:DISL:DISL:1,2019-05-07T04:40:00Z,30.2513,-88.0778,23.78,11111222 
DISL,ioos:station:DISL:DISL:1,2019-05-07T05:40:00Z,30.2513,-88.0778,22.33,11111222 
DISL,ioos:station:DISL:DISL:1,2019-05-07T06:40:00Z,30.2513,-88.0778,23.67,11111222 
DISL,ioos:station:DISL:DISL:1,2019-05-07T07:40:00Z,30.2513,-88.0778,23.6,11111222 
DISL,ioos:station:DISL:DISL:1,2019-05-07T08:40:00Z,30.2513,-88.0778,22.87,11111222 
DISL,ioos:station:DISL:DISL:1,2019-05-07T09:40:00Z,30.2513,-88.0778,22.69,11111222 
DISL,ioos:station:DISL:DISL:1,2019-05-07T11:10:00Z,30.2513,-88.0778,22.42,11111222 
DISL,ioos:station:DISL:DISL:1,2019-05-07T11:40:00Z,30.2513,-88.0778,22.77,11111222 
DISL,ioos:station:DISL:DISL:1,2019-05-07T12:40:00Z,30.2513,-88.0778,23.4,11111222 
DISL,ioos:station:DISL:DISL:1,2019-05-07T14:10:00Z,30.2513,-88.0778,23.37,11111222 
DISL,ioos:station:DISL:DISL:1,2019-05-07T15:10:00Z,30.2513,-88.0778,23.04,11111222 
DISL,ioos:station:DISL:DISL:1,2019-05-07T16:10:00Z,30.2513,-88.0778,23.65,11111222 
DISL,ioos:station:DISL:DISL:1,2019-05-07T17:10:00Z,30.2513,-88.0778,24.27,11111222 
DISL,ioos:station:DISL:DISL:1,2019-05-07T18:10:00Z,30.2513,-88.0778,25.84,11111222 
DISL,ioos:station:DISL:DISL:1,2019-05-07T19:10:00Z,30.2513,-88.0778,25.31,11111222 
DISL,ioos:station:DISL:DISL:1,2019-05-07T20:10:00Z,30.2513,-88.0778,26.1,11111222 
DISL,ioos:station:DISL:DISL:1,2019-05-07T21:10:00Z,30.2513,-88.0778,26.47,11111222 
DISL,ioos:station:DISL:DISL:1,2019-05-07T22:10:00Z,30.2513,-88.0778,26.34,11111222 
DISL,ioos:station:DISL:DISL:1,2019-05-07T23:10:00Z,30.2513,-88.0778,26.27,11111222 
DISL,ioos:station:DISL:DISL:1,2019-05-07T23:40:00Z,30.2513,-88.0778,26.35,11111222 
DISL,ioos:station:DISL:DISL:1,2019-05-08T00:40:00Z,30.2513,-88.0778,25.39,11111222 
DISL,ioos:station:DISL:DISL:1,2019-05-08T01:40:00Z,30.2513,-88.0778,25.27,11111222 
DISL,ioos:station:DISL:DISL:1,2019-05-08T02:40:00Z,30.2513,-88.0778,24.96,11111222 
DISL,ioos:station:DISL:DISL:1,2019-05-08T03:40:00Z,30.2513,-88.0778,24.9,11111222 
DISL,ioos:station:DISL:DISL:1,2019-05-08T04:39:00Z,30.2513,-88.0778,24.79,11111222 
DISL,ioos:station:DISL:DISL:1,2019-05-08T05:39:00Z,30.2513,-88.0778,24.66,11111222 
DISL,ioos:station:DISL:DISL:1,2019-05-08T06:39:00Z,30.2513,-88.0778,24.49,11111222 
DISL,ioos:station:DISL:DISL:1,2019-05-08T07:39:00Z,30.2513,-88.0778,24.22,11111222 
DISL,ioos:station:DISL:DISL:1,2019-05-08T08:39:00Z,30.2513,-88.0778,24.12,11111222 
DISL,ioos:station:DISL:DISL:1,2019-05-08T09:39:00Z,30.2513,-88.0778,24.12,11111222 
DISL,ioos:station:DISL:DISL:1,2019-05-08T10:39:00Z,30.2513,-88.0778,23.91,11111222 
DISL,ioos:station:DISL:DISL:1,2019-05-08T11:39:00Z,30.2513,-88.0778,24.02,11111222 
DISL,ioos:station:DISL:DISL:1,2019-05-08T12:39:00Z,30.2513,-88.0778,24.35,11111222 
DISL,ioos:station:DISL:DISL:1,2019-05-08T13:39:00Z,30.2513,-88.0778,24.81,11111222 
DISL,ioos:station:DISL:DISL:1,2019-05-08T14:39:00Z,30.2513,-88.0778,25.11,11111222 
DISL,ioos:station:DISL:DISL:1,2019-05-08T15:39:00Z,30.2513,-88.0778,25.64,11111222 
DISL,ioos:station:DISL:DISL:1,2019-05-08T16:39:00Z,30.2513,-88.0778,25.3,11111222 
DISL,ioos:station:DISL:DISL:1,2019-05-08T17:39:00Z,30.2513,-88.0778,25.25,11111222 
DISL,ioos:station:DISL:DISL:1,2019-05-08T18:39:00Z,30.2513,-88.0778,25.33,11111222 
DISL,ioos:station:DISL:DISL:1,2019-05-08T19:39:00Z,30.2513,-88.0778,25.44,11111222 
DISL,ioos:station:DISL:DISL:1,2019-05-08T20:39:00Z,30.2513,-88.0778,25.69,11111222 
DISL,ioos:station:DISL:DISL:1,2019-05-08T21:39:00Z,30.2513,-88.0778,26.07,11111222 
DISL,ioos:station:DISL:DISL:1,2019-05-08T22:39:00Z,30.2513,-88.0778,25.56,11111222 
DISL,ioos:station:DISL:DISL:1,2019-05-08T23:39:00Z,30.2513,-88.0778,25.02,11111222 
DISL,ioos:station:DISL:DISL:1,2019-05-09T00:39:00Z,30.2513,-88.0778,24.7,11111222 
DISL,ioos:station:DISL:DISL:1,2019-05-09T01:39:00Z,30.2513,-88.0778,24.62,11111222 
DISL,ioos:station:DISL:DISL:1,2019-05-09T02:39:00Z,30.2513,-88.0778,24.52,11111222 
DISL,ioos:station:DISL:DISL:1,2019-05-09T03:39:00Z,30.2513,-88.0778,24.55,11111222 
DISL,ioos:station:DISL:DISL:1,2019-05-09T04:39:00Z,30.2513,-88.0778,24.45,11111222 
DISL,ioos:station:DISL:DISL:1,2019-05-09T05:39:00Z,30.2513,-88.0778,24.38,11111222 
DISL,ioos:station:DISL:DISL:1,2019-05-09T06:39:00Z,30.2513,-88.0778,24.35,11111222 
DISL,ioos:station:DISL:DISL:1,2019-05-09T07:39:00Z,30.2513,-88.0778,24.45,11111222 
DISL,ioos:station:DISL:DISL:1,2019-05-09T08:39:00Z,30.2513,-88.0778,24.55,11111222 
DISL,ioos:station:DISL:DISL:1,2019-05-09T09:39:00Z,30.2513,-88.0778,24.49,11111222 
DISL,ioos:station:DISL:DISL:1,2019-05-09T10:39:00Z,30.2513,-88.0778,24.45,11111222 
DISL,ioos:station:DISL:DISL:1,2019-05-09T11:39:00Z,30.2513,-88.0778,24.52,11111222 
DISL,ioos:station:DISL:DISL:1,2019-05-09T12:39:00Z,30.2513,-88.0778,24.96,11111222 
DISL,ioos:station:DISL:DISL:1,2019-05-09T13:39:00Z,30.2513,-88.0778,25.15,11111222 
DISL,ioos:station:DISL:DISL:1,2019-05-09T15:09:00Z,30.2513,-88.0778,25.5,11111222 
DISL,ioos:station:DISL:DISL:1,2019-05-09T16:09:00Z,30.2513,-88.0778,25.81,11111222 
DISL,ioos:station:DISL:DISL:1,2019-05-09T17:09:00Z,30.2513,-88.0778,26.08,11111222 
DISL,ioos:station:DISL:DISL:1,2019-05-09T18:09:00Z,30.2513,-88.0778,26.25,11111222 
DISL,ioos:station:DISL:DISL:1,2019-05-09T19:09:00Z,30.2513,-88.0778,26.4,11111222 
DISL,ioos:station:DISL:DISL:1,2019-05-09T20:09:00Z,30.2513,-88.0778,26.27,11111222 
DISL,ioos:station:DISL:DISL:1,2019-05-09T21:06:00Z,30.2513,-88.0778,25.84,11111222 
DISL,ioos:station:DISL:DISL:1,2019-05-09T21:39:00Z,30.2513,-88.0778,25.74,11111222 
DISL,ioos:station:DISL:DISL:1,2019-05-09T22:39:00Z,30.2513,-88.0778,25.82,11111222 
DISL,ioos:station:DISL:DISL:1,2019-05-09T23:39:00Z,30.2513,-88.0778,20.49,11111222 
DISL,ioos:station:DISL:DISL:1,2019-05-10T00:39:00Z,30.2513,-88.0778,20.51,11111222 
DISL,ioos:station:DISL:DISL:1,2019-05-10T01:39:00Z,30.2513,-88.0778,22.16,11111222 
DISL,ioos:station:DISL:DISL:1,2019-05-10T03:09:00Z,30.2513,-88.0778,22.14,11111222 
DISL,ioos:station:DISL:DISL:1,2019-05-10T03:39:00Z,30.2513,-88.0778,21.53,11111222 
DISL,ioos:station:DISL:DISL:1,2019-05-10T05:09:00Z,30.2513,-88.0778,23.41,11111222 
DISL,ioos:station:DISL:DISL:1,2019-05-10T06:10:00Z,30.2513,-88.0778,23.64,11111222 
DISL,ioos:station:DISL:DISL:1,2019-05-10T07:09:00Z,30.2513,-88.0778,24.49,11111222 
DISL,ioos:station:DISL:DISL:1,2019-05-10T08:10:00Z,30.2513,-88.0778,24.28,11111222 
DISL,ioos:station:DISL:DISL:1,2019-05-10T09:10:00Z,30.2513,-88.0778,24.18,11111222 
DISL,ioos:station:DISL:DISL:1,2019-05-10T10:10:00Z,30.2513,-88.0778,24.59,11111222 
DISL,ioos:station:DISL:DISL:1,2019-05-10T11:10:00Z,30.2513,-88.0778,22.36,11111222 
DISL,ioos:station:DISL:DISL:1,2019-05-10T12:10:00Z,30.2513,-88.0778,21.66,11111222 
DISL,ioos:station:DISL:DISL:1,2019-05-10T13:10:00Z,30.2513,-88.0778,21.53,11111222 
DISL,ioos:station:DISL:DISL:1,2019-05-10T14:10:00Z,30.2513,-88.0778,21.89,11111222 
DISL,ioos:station:DISL:DISL:1,2019-05-10T15:10:00Z,30.2513,-88.0778,22.5,11111222 
DISL,ioos:station:DISL:DISL:1,2019-05-10T16:10:00Z,30.2513,-88.0778,23.16,11111222 
DISL,ioos:station:DISL:DISL:1,2019-05-10T17:10:00Z,30.2513,-88.0778,23.57,11111222 
DISL,ioos:station:DISL:DISL:1,2019-05-10T18:10:00Z,30.2513,-88.0778,23.97,11111222 
DISL,ioos:station:DISL:DISL:1,2019-05-10T19:10:00Z,30.2513,-88.0778,24.92,11111222 
DISL,ioos:station:DISL:DISL:1,2019-05-10T20:10:00Z,30.2513,-88.0778,24.89,11111222 
DISL,ioos:station:DISL:DISL:1,2019-05-10T21:10:00Z,30.2513,-88.0778,25.18,11111222 
DISL,ioos:station:DISL:DISL:1,2019-05-10T22:10:00Z,30.2513,-88.0778,25.23,11111222 
DISL,ioos:station:DISL:DISL:1,2019-05-10T23:10:00Z,30.2513,-88.0778,25.06,11111222 
DISL,ioos:station:DISL:DISL:1,2019-05-10T23:40:00Z,30.2513,-88.0778,25.04,11111222 
DISL,ioos:station:DISL:DISL:1,2019-05-11T00:40:00Z,30.2513,-88.0778,24.94,11111222 
DISL,ioos:station:DISL:DISL:1,2019-05-11T01:40:00Z,30.2513,-88.0778,24.83,11111222 
DISL,ioos:station:DISL:DISL:1,2019-05-11T02:40:00Z,30.2513,-88.0778,24.96,11111222 
DISL,ioos:station:DISL:DISL:1,2019-05-11T03:40:00Z,30.2513,-88.0778,24.83,11111222 
DISL,ioos:station:DISL:DISL:1,2019-05-11T04:40:00Z,30.2513,-88.0778,24.79,11111222 
DISL,ioos:station:DISL:DISL:1,2019-05-11T05:40:00Z,30.2513,-88.0778,24.62,11111222 
DISL,ioos:station:DISL:DISL:1,2019-05-11T06:40:00Z,30.2513,-88.0778,24.66,11111222 
DISL,ioos:station:DISL:DISL:1,2019-05-11T07:40:00Z,30.2513,-88.0778,24.55,11111222 
DISL,ioos:station:DISL:DISL:1,2019-05-11T08:40:00Z,30.2513,-88.0778,24.69,11111222 
DISL,ioos:station:DISL:DISL:1,2019-05-11T09:40:00Z,30.2513,-88.0778,24.66,11111222 
DISL,ioos:station:DISL:DISL:1,2019-05-11T10:40:00Z,30.2513,-88.0778,24.55,11111222 
DISL,ioos:station:DISL:DISL:1,2019-05-11T11:40:00Z,30.2513,-88.0778,24.55,11111222 
DISL,ioos:station:DISL:DISL:1,2019-05-11T12:40:00Z,30.2513,-88.0778,25.0,11111222 
DISL,ioos:station:DISL:DISL:1,2019-05-12T12:40:00Z,30.2513,-88.0778,25.2,11111222 
DISL,ioos:station:DISL:DISL:1,2019-05-13T20:39:00Z,30.2513,-88.0778,24.89,11111222 
DISL,ioos:station:DISL:DISL:1,2019-05-13T21:39:00Z,30.2513,-88.0778,25.26,11111222 
DISL,ioos:station:DISL:DISL:1,2019-05-13T22:39:00Z,30.2513,-88.0778,25.57,11111222 
DISL,ioos:station:DISL:DISL:1,2019-05-13T23:39:00Z,30.2513,-88.0778,25.81,11111222 
DISL,ioos:station:DISL:DISL:1,2019-05-14T00:39:00Z,30.2513,-88.0778,25.32,11111222 
DISL,ioos:station:DISL:DISL:1,2019-05-14T01:39:00Z,30.2513,-88.0778,25.06,11111222 
DISL,ioos:station:DISL:DISL:1,2019-05-14T02:39:00Z,30.2513,-88.0778,24.62,11111222 
DISL,ioos:station:DISL:DISL:1,2019-05-14T03:39:00Z,30.2513,-88.0778,24.28,11111222 
DISL,ioos:station:DISL:DISL:1,2019-05-14T04:39:00Z,30.2513,-88.0778,23.91,11111222 
DISL,ioos:station:DISL:DISL:1,2019-05-14T05:39:00Z,30.2513,-88.0778,23.41,11111222 
DISL,ioos:station:DISL:DISL:1,2019-05-14T06:39:00Z,30.2513,-88.0778,23.1,11111222 
DISL,ioos:station:DISL:DISL:1,2019-05-14T07:39:00Z,30.2513,-88.0778,23.07,11111222 
DISL,ioos:station:DISL:DISL:1,2019-05-14T08:39:00Z,30.2513,-88.0778,23.0,11111222 
DISL,ioos:station:DISL:DISL:1,2019-05-14T09:39:00Z,30.2513,-88.0778,22.48,11111222 
DISL,ioos:station:DISL:DISL:1,2019-05-14T10:39:00Z,30.2513,-88.0778,21.87,11111222 
DISL,ioos:station:DISL:DISL:1,2019-05-14T11:39:00Z,30.2513,-88.0778,21.5,11111222 
DISL,ioos:station:DISL:DISL:1,2019-05-14T12:39:00Z,30.2513,-88.0778,21.46,11111222 
DISL,ioos:station:DISL:DISL:1,2019-05-14T13:39:00Z,30.2513,-88.0778,21.73,11111222 
DISL,ioos:station:DISL:DISL:1,2019-05-14T14:39:00Z,30.2513,-88.0778,21.75,11111222 
DISL,ioos:station:DISL:DISL:1,2019-05-14T15:39:00Z,30.2513,-88.0778,22.19,11111222 
DISL,ioos:station:DISL:DISL:1,2019-05-14T16:39:00Z,30.2513,-88.0778,22.63,11111222 
DISL,ioos:station:DISL:DISL:1,2019-05-14T17:39:00Z,30.2513,-88.0778,23.39,11111222 
DISL,ioos:station:DISL:DISL:1,2019-05-14T18:39:00Z,30.2513,-88.0778,23.78,11111222 
DISL,ioos:station:DISL:DISL:1,2019-05-14T19:39:00Z,30.2513,-88.0778,24.5,11111222 
DISL,ioos:station:DISL:DISL:1,2019-05-14T20:39:00Z,30.2513,-88.0778,24.77,11111222 
DISL,ioos:station:DISL:DISL:1,2019-05-14T21:39:00Z,30.2513,-88.0778,25.06,11111222 
DISL,ioos:station:DISL:DISL:1,2019-05-14T22:39:00Z,30.2513,-88.0778,25.57,11111222 
DISL,ioos:station:DISL:DISL:1,2019-05-14T23:39:00Z,30.2513,-88.0778,25.82,11111222 
DISL,ioos:station:DISL:DISL:1,2019-05-15T00:39:00Z,30.2513,-88.0778,25.18,11111222 
DISL,ioos:station:DISL:DISL:1,2019-05-15T01:39:00Z,30.2513,-88.0778,24.96,11111222 
DISL,ioos:station:DISL:DISL:1,2019-05-15T02:39:00Z,30.2513,-88.0778,24.96,11111222 